Total_Precipitation_Accumulation
0.63 0.84 0.88 0.79 0.79 0.85 0.76 0.71 0.81 0.81 0.68 0.82 0.78 0.62 0.53 0.48 0.45 0.49 0.55 0.55 0.49 0.36 0.24 0.17 0.16 0.23 0.30 0.30 0.30 0.36 0.40 0.50 0.51 0.45 0.48 0.64 0.78 0.90 1.06 1.24 1.25 1.46 1.59 1.51
0.73 0.63 0.48 0.55 0.60 0.70 0.73 0.78 0.81 0.74 0.63 0.72 0.79 0.66 0.54 0.44 0.39 0.40 0.44 0.47 0.44 0.34 0.24 0.18 0.15 0.17 0.23 0.27 0.22 0.25 0.29 0.41 0.52 0.55 0.59 0.73 0.93 1.05 1.17 1.34 1.38 1.45 1.46 1.45
0.55 0.44 0.39 0.48 0.56 0.69 0.67 0.75 0.73 0.74 0.76 0.70 0.78 0.85 0.66 0.50 0.43 0.41 0.40 0.42 0.39 0.29 0.24 0.21 0.17 0.15 0.16 0.21 0.18 0.22 0.32 0.46 0.63 0.81 1.05 1.32 1.63 1.79 1.69 1.57 1.66 1.74 1.78 1.71
0.64 0.43 0.40 0.47 0.52 0.62 0.78 0.53 0.53 0.64 0.87 0.88 0.74 0.97 0.68 0.49 0.49 0.48 0.43 0.38 0.34 0.30 0.27 0.23 0.20 0.19 0.20 0.26 0.32 0.42 0.55 0.72 0.88 1.09 1.31 1.60 1.88 2.09 2.10 2.15 2.21 2.16 2.08 1.96
0.73 0.46 0.41 0.47 0.43 0.47 0.62 0.53 0.53 0.62 0.81 0.77 0.67 0.70 0.60 0.49 0.58 0.60 0.55 0.46 0.43 0.41 0.38 0.36 0.35 0.32 0.33 0.43 0.57 0.69 0.94 1.11 1.25 1.30 1.38 1.61 1.73 1.83 1.95 2.11 2.18 2.18 2.11 2.00
0.63 0.44 0.39 0.39 0.36 0.39 0.51 0.61 0.68 0.77 0.85 0.80 0.53 0.52 0.60 0.48 0.54 0.65 0.63 0.54 0.48 0.46 0.43 0.44 0.50 0.50 0.55 0.75 0.98 1.13 1.27 1.38 1.37 1.32 1.32 1.43 1.59 1.70 1.81 1.97 2.05 1.99 1.88 1.86
0.59 0.50 0.38 0.36 0.44 0.43 0.51 0.77 0.98 1.01 0.94 0.67 0.35 0.41 0.49 0.38 0.36 0.46 0.53 0.52 0.47 0.41 0.41 0.45 0.53 0.66 0.86 1.07 1.27 1.41 1.43 1.37 1.23 1.18 1.23 1.28 1.43 1.59 1.64 1.70 1.72 1.72 1.68 1.63
0.48 0.55 0.37 0.31 0.35 0.39 0.43 0.56 0.84 0.92 0.78 0.55 0.38 0.52 0.53 0.39 0.29 0.27 0.29 0.35 0.43 0.48 0.54 0.56 0.60 0.76 1.06 1.32 1.53 1.80 1.79 1.56 1.33 1.25 1.29 1.32 1.42 1.48 1.46 1.40 1.44 1.47 1.46 1.42
0.37 0.39 0.31 0.31 0.32 0.33 0.40 0.41 0.45 0.62 0.54 0.50 0.42 0.48 0.43 0.29 0.24 0.23 0.25 0.31 0.44 0.54 0.64 0.74 0.88 0.96 1.18 1.40 1.72 1.98 2.03 1.82 1.64 1.54 1.44 1.44 1.36 1.29 1.22 1.14 1.14 1.18 1.23 1.17
0.34 0.38 0.35 0.34 0.39 0.35 0.32 0.35 0.41 0.63 0.70 0.67 0.48 0.49 0.43 0.29 0.22 0.23 0.33 0.40 0.48 0.58 0.62 0.80 1.10 1.36 1.62 1.55 1.66 1.86 1.77 1.71 1.69 1.67 1.62 1.51 1.35 1.22 1.17 1.11 1.11 1.09 1.14 1.09
0.30 0.40 0.42 0.39 0.35 0.31 0.31 0.34 0.39 0.52 0.54 0.69 0.75 0.64 0.39 0.33 0.32 0.38 0.47 0.49 0.54 0.62 0.68 0.87 1.06 1.25 1.48 1.58 1.58 1.60 1.58 1.61 1.61 1.47 1.39 1.24 1.03 0.91 0.91 0.94 0.93 0.89 0.91 0.87
0.27 0.39 0.44 0.37 0.29 0.29 0.35 0.38 0.42 0.66 0.66 0.62 0.86 0.87 0.50 0.47 0.49 0.58 0.65 0.70 0.73 0.74 0.81 0.95 1.06 1.22 1.31 1.32 1.41 1.50 1.43 1.41 1.36 1.21 1.07 0.91 0.77 0.71 0.74 0.76 0.72 0.65 0.67 0.64
0.32 0.48 0.54 0.51 0.45 0.39 0.50 0.53 0.45 0.45 0.60 0.75 0.95 0.92 0.67 0.66 0.71 0.80 0.91 0.93 0.87 0.81 0.81 0.90 0.97 1.06 1.12 1.19 1.28 1.40 1.32 1.31 1.31 1.13 0.96 0.86 0.78 0.76 0.74 0.69 0.64 0.54 0.51 0.57
0.34 0.44 0.42 0.44 0.41 0.42 0.58 0.62 0.52 0.53 0.69 0.72 0.75 0.82 0.82 0.92 0.94 0.95 0.96 0.93 0.84 0.72 0.64 0.62 0.63 0.71 0.79 0.87 0.96 1.09 1.08 1.24 1.38 1.30 1.11 0.98 0.91 0.81 0.75 0.63 0.58 0.50 0.54 0.60
0.34 0.39 0.29 0.22 0.21 0.24 0.38 0.46 0.43 0.47 0.52 0.56 0.59 0.65 0.80 0.90 0.93 0.90 0.81 0.67 0.59 0.51 0.43 0.37 0.40 0.48 0.54 0.65 0.70 0.79 0.93 1.15 1.21 1.02 0.81 0.73 0.72 0.70 0.60 0.55 0.51 0.47 0.45 0.44
0.33 0.34 0.28 0.23 0.18 0.20 0.20 0.18 0.21 0.24 0.29 0.35 0.47 0.61 0.67 0.69 0.69 0.63 0.50 0.39 0.36 0.34 0.31 0.28 0.30 0.36 0.38 0.42 0.49 0.62 0.70 0.78 0.77 0.68 0.61 0.57 0.52 0.48 0.46 0.46 0.43 0.38 0.34 0.31
0.32 0.36 0.40 0.33 0.19 0.22 0.21 0.14 0.17 0.25 0.26 0.34 0.53 0.65 0.58 0.51 0.48 0.46 0.35 0.25 0.25 0.24 0.23 0.22 0.23 0.26 0.26 0.29 0.32 0.34 0.40 0.50 0.49 0.42 0.38 0.38 0.40 0.37 0.34 0.36 0.37 0.37 0.35 0.33
0.26 0.36 0.46 0.42 0.36 0.35 0.17 0.10 0.12 0.19 0.24 0.32 0.43 0.45 0.39 0.35 0.31 0.28 0.22 0.19 0.20 0.19 0.19 0.19 0.19 0.22 0.23 0.26 0.28 0.30 0.33 0.37 0.40 0.34 0.30 0.30 0.33 0.34 0.35 0.36 0.37 0.36 0.35 0.34
0.18 0.34 0.50 0.49 0.50 0.28 0.11 0.09 0.11 0.14 0.17 0.19 0.22 0.23 0.21 0.21 0.21 0.22 0.19 0.18 0.18 0.17 0.18 0.19 0.21 0.24 0.27 0.29 0.29 0.26 0.26 0.27 0.29 0.29 0.29 0.29 0.33 0.35 0.35 0.33 0.32 0.31 0.32 0.32
0.19 0.27 0.44 0.48 0.51 0.34 0.15 0.10 0.10 0.12 0.17 0.14 0.14 0.14 0.15 0.16 0.23 0.24 0.19 0.15 0.15 0.17 0.17 0.18 0.21 0.25 0.27 0.29 0.29 0.27 0.26 0.26 0.25 0.28 0.30 0.34 0.35 0.35 0.34 0.36 0.38 0.33 0.30 0.31
0.25 0.30 0.34 0.42 0.48 0.27 0.12 0.11 0.12 0.20 0.21 0.13 0.12 0.12 0.12 0.16 0.19 0.18 0.17 0.15 0.14 0.19 0.21 0.20 0.22 0.23 0.25 0.27 0.30 0.32 0.31 0.32 0.32 0.32 0.34 0.33 0.31 0.33 0.37 0.39 0.41 0.41 0.36 0.33
0.30 0.35 0.36 0.40 0.47 0.30 0.12 0.13 0.18 0.18 0.12 0.10 0.10 0.11 0.12 0.13 0.13 0.12 0.14 0.14 0.14 0.16 0.19 0.19 0.20 0.21 0.24 0.25 0.26 0.27 0.28 0.34 0.33 0.30 0.30 0.29 0.27 0.29 0.35 0.40 0.35 0.34 0.36 0.35
0.26 0.29 0.34 0.35 0.30 0.19 0.15 0.16 0.16 0.14 0.12 0.09 0.08 0.09 0.10 0.11 0.11 0.11 0.12 0.14 0.15 0.15 0.16 0.17 0.19 0.20 0.23 0.26 0.27 0.29 0.31 0.36 0.33 0.29 0.29 0.32 0.34 0.35 0.36 0.41 0.38 0.34 0.33 0.36
0.24 0.21 0.26 0.26 0.17 0.12 0.14 0.15 0.15 0.12 0.11 0.09 0.08 0.10 0.12 0.13 0.14 0.15 0.12 0.14 0.16 0.17 0.16 0.18 0.20 0.23 0.25 0.29 0.31 0.33 0.34 0.36 0.36 0.36 0.36 0.39 0.41 0.44 0.43 0.41 0.41 0.38 0.36 0.39
0.25 0.24 0.26 0.26 0.19 0.15 0.13 0.13 0.12 0.12 0.13 0.12 0.13 0.14 0.16 0.17 0.16 0.18 0.18 0.18 0.19 0.19 0.16 0.18 0.20 0.20 0.24 0.26 0.27 0.29 0.30 0.32 0.32 0.34 0.38 0.43 0.46 0.51 0.54 0.51 0.48 0.47 0.47 0.49
0.23 0.24 0.29 0.29 0.24 0.24 0.19 0.15 0.13 0.13 0.16 0.15 0.17 0.16 0.15 0.15 0.16 0.17 0.19 0.23 0.24 0.24 0.21 0.19 0.21 0.22 0.22 0.23 0.24 0.25 0.27 0.28 0.29 0.33 0.37 0.41 0.46 0.49 0.52 0.57 0.56 0.60 0.59 0.60